HAMSAT

导读

HAMSAT是印度空间研究组织(ISRO)于2005年5月5日发射的一颗业余无线电卫星,由印度与欧洲业余无线电团体合作开发。作为印度首颗专门服务业余无线电通信的微小卫星,它为全球业余无线电爱好者提供双向通信、实验转发器服务,支持开展卫星通信实验、应急通信演练等活动,是印度航天拓展民用航天参与,推动业余无线电空间技术发展的标志性项目,丰富了全球业余卫星通信资源。

基本信息
目录编号:
28650
目录名称:
HAMSAT
国际标识:
2005-017B
轨道中心:
EARTH
卫星名称:
HAMSAT
卫星全名:
--
卫星状态:
在轨 (已飞行7800 天)
发射日期:
2005-05-05 UTC
国别 :
印度 (IN)
星等 :
--
该卫星已列入 空间交会检测服务 Space Conjunction Data Service (SCDS) ,当前飞行风险评估等级: 无高风险
轨道信息
数据来源 国际轨道数据
星历时间: 2026-09-12T15:49:49+0800
5小时前
查看轨道信息
半长轴: 6913.282km
偏心率: 0.0020489
轨道倾角: 97.987°
近地点辐角 100.459°
升交点赤经 282.120°
平近点角 259.895°
近地点: 520.98km
远地点: 549.31km
周期: 95.342分钟
每日圈数: 15.103458
详细信息
使用方式:
暂无
2D轨道图
3D轨道图
轨道高度分析图
轨道倾角分析图
轨道综合分析图
查看轨道综合分析图
交会数据列表
事件ID 空间交会对象 最接近时刻(TCA) 交会距离 交会风险概率(CRP) 交会风险指数(CRI) 操作
CDM_260913-134602-865005-368626
HAMSAT (28650)
2026-09-13T
13:46:08+0000
2.755 km
极远距离
1.486101E-6 低风险 0.38
CDM_260914-041702-865005-355724
HAMSAT (28650)
2026-09-14T
04:17:10+0000
2.679 km
极远距离
9.310147E-7 极低风险 0.34
CDM_260914-055202-865005-355722
HAMSAT (28650)
2026-09-14T
05:52:40+0000
2.961 km
极远距离
8.18358E-7 极低风险 0.33
与全量物体交会距离演化趋势
与全量物体交会风险概率演化趋势